Regional Weather Roundup
Issued by NWS Newport/Morehead, NC

Current Version | Previous Version | Text Only | Print | Product List | Glossary On
Versions: 1 2 3 4 5 6 7 8 9 10 11 12 13 14 15 16 17 18 19 20 21 22 23 24 25 26 27 28 29 30 31 32 33 34 35 36 37 38 39 40 41 42 43 44 45 46 47 48 49 50
000 ASUS42 KMHX 232322 RWRMHX WEATHER ROUNDUP FOR EASTERN NORTH CAROLINA NATIONAL WEATHER SERVICE NEWPORT/MOREHEAD CITY NC 700 PM EDT THU OCT 23 2014 NOTE: "FAIR" INDICATES FEW OR NO CLOUDS BELOW 12,000 FEET WITH NO SIGNIFICANT WEATHER AND/OR OBSTRUCTIONS TO VISIBILITY NCZ015>017-031-032-045>047-102-103-240000- NORTH COAST CITY SKY/WX TMP DP RH WIND PRES REMARKS EDENTON CLEAR 58 51 79 CALM 29.90R ELIZABETH CITY CLEAR 59 47 64 W6 29.88R KITTY HAWK CLEAR 60 51 70 NW3 29.87R MANTEO CLEAR 62 50 66 NW5 29.89R $$ NCZ045>047-081-094-103-104-240000- CENTRAL COAST CITY SKY/WX TMP DP RH WIND PRES REMARKS FRISCO CLEAR 62 50 64 NW10 29.90R SWANQUARTER NOT AVBL $$ NCZ095-097-098-100-101-240000- SOUTHERN COAST CITY SKY/WX TMP DP RH WIND PRES REMARKS BEAUFORT CLEAR 62 50 64 W7 29.92R CEDAR ISLAND NOT AVBL JACKSONVILLE CLEAR 60 49 66 W5 29.93R PINEY ISLAND CLEAR 64 49 57 W8 29.91R WILMINGTON CLEAR 63 46 54 W5 29.95R $$ NCZ011>013-027>030-043-044-078>080-089-090>093-098-240000- COASTAL PLAIN CITY SKY/WX TMP DP RH WIND PRES REMARKS AHOSKIE CLEAR 57 50 77 CALM 29.92R CLINTON CLEAR 61 52 71 CALM 29.95R ELIZABETHTOWN CLEAR 60 48 63 CALM 29.96R GOLDSBORO CLEAR 61 52 73 W3 29.91R GREENVILLE CLEAR 61 48 63 CALM 29.94R HAVELOCK CLEAR 57 49 74 SW7 29.93R KENANSVILLE CLEAR 55 49 81 SW3 29.95R KINSTON CLEAR 57 50 77 W3 29.94R NEW BERN CLEAR 60 51 72 W3 29.93R RICHLANDS CLEAR 55 46 71 CALM 29.95R ROCKY MOUNT CLEAR 63 46 54 NW6 29.93R WASHINGTON CLEAR 57 49 73 CALM 29.93R WHITEVILLE CLEAR 58 47 65 CALM 29.97R $$ AMZ130-135-150-152-154-156-158-170-250-252-270-ANZ085-086-088-633-658-670-240000- MARINE OBSERVATIONS STATION/POSITION TIME TEMP WIND PRES WAVE SWELL AIR SEA DIR/SP/G HT/PER HT/PER (UTC) (F) (DEG/KT/KT) (MB) (FT/S) (FT/S) CHESAPEAKE LIGHT 2300 64 310/ 22/ 24 1011.6 64 E VA BEACH 2300 65 67 310/ 25/ 31 1009.2 7/ 6 DUCK 2300 63 66 290/ 7/ 9 1010.8 2 E DUCK 2300 N/A 4/ 8 10 NE DUCK 2300 68 N/A 5/ 7 OREGON INLET 2300 61 64 290/ 5/ 8 1011.7 13E OREGON INLT 2300 70 N/A 7/ 9 2/11 HATTERAS CG 2300 65 63 310/ 15/ 18 1012.8 DIAMOND BUOY 2300 65 300/ 17/ 21 1012.2 5/ 5 2/ 8 17 S OCRACOKE NOT AVBL CAPE LOOKOUT 2300 66 290/ 15/ 17 1013.0 BEAUFORT LAB 2300 64 67 290/ 5/ 7 1012.6 30 SE NEW RIVER 2300 69 75 310/ 16/ 17 1012.6 3/ 4 2/ 9 5 SE WRIGHTSVLE 2300 64 72 300/ 14/ 16 N/A 225 S CAPE HAT 2235 70 78 290/ 12/ 16 1014.1 7/11 7/11 41 SE CHARLESTON 2300 68 78 300/ 10/ 16 1015.1 2/ 5 2/10 $$

USA.gov is the U.S. government's official web portal to all federal, state and local government web resources and services.